Clinton, OK

9:19 PM CDT on May 28, 2017 (GMT -0500)
Clinton Municipal

Weather History for KCLK - June, 2013

Change the Weather History Date:

Sunday, June 30, 2013

  Actual Average (KCSM) Record (KCSM)
Temperature  
Mean Temperature 76 °F -  
Max Temperature 87 °F 89 °F 102 °F (1998)
Min Temperature 66 °F 68 °F 62 °F (2008)
Cooling Degree Days 12    
Growing Degree Days 26 (Base 50)    
Moisture  
Dew Point 46 °F    
Average Humidity 35    
Maximum Humidity 64    
Minimum Humidity 19    
Precipitation  
Precipitation 0.00 in - - ()
Sea Level Pressure  
Sea Level Pressure 30.02 in    
Wind  
Wind Speed 12 mph (NNE)    
Max Wind Speed 22 mph    
Max Gust Speed 34 mph    
Visibility 10 miles    
Events      
Averages and records for this station are not official NWS values.
T = Trace of Precipitation, MM = Missing Value Source: NWS Daily Summary

Daily Weather History Graph

Daily Weather History Graph

Search for Another Location

Airport or City:

Trip Planner

Search our weather history database for the weather conditions in past years. The results will help you decide how hot, cold, wet, or windy it might be!

Date:

Astronomy

Jun. 30, 2013 Rise Set
Actual Time 6:23 AM CDT 8:55 PM CDT
Civil Twilight 5:53 AM CDT 9:25 PM CDT
Nautical Twilight 5:16 AM CDT 10:02 PM CDT
Astronomical Twilight 4:35 AM CDT 10:42 PM CDT
Moon 1:12 AM CDT (6/30) 2:20 PM CDT (6/30)
Length of Visible Light 15h 31m
Length of Day
14h 31m
Last Quarter, 45% of the Moon is Illuminated
Jun 30
Last Quarter
Jul 8
New
Jul 15
First Quarter
Jul 22
Full
Jul 29
Last Quarter

Hourly Weather History & Observations

Time (CDT) Temp. Dew Point Humidity Pressure Visibility Wind Dir Wind Speed Gust Speed Precip Events Conditions
12:15 AM 78.8 °F 50.0 °F 36% 29.97 in 10.0 mi NE 15.0 mph 19.6 mph N/A   Unknown
12:35 AM 78.8 °F 46.4 °F 32% 29.98 in 10.0 mi NE 15.0 mph - N/A   Unknown
12:55 AM 78.8 °F 46.4 °F 32% 29.99 in 10.0 mi NE 13.8 mph - N/A   Unknown
1:15 AM 77.0 °F 48.2 °F 36% 29.99 in 10.0 mi NE 10.4 mph - N/A   Unknown
1:35 AM 77.0 °F 48.2 °F 36% 30.00 in 10.0 mi NE 12.7 mph - N/A   Unknown
1:55 AM 77.0 °F 46.4 °F 34% 29.99 in 10.0 mi NE 15.0 mph 20.7 mph N/A   Unknown
2:15 AM 71.6 °F 51.8 °F 50% 29.99 in 10.0 mi ENE 17.3 mph - N/A   Unknown
2:35 AM 71.6 °F 50.0 °F 46% 29.99 in 10.0 mi NE 11.5 mph - N/A   Unknown
2:55 AM 73.4 °F 50.0 °F 44% 29.99 in 10.0 mi NE 9.2 mph - N/A   Unknown
3:15 AM 71.6 °F 50.0 °F 46% 30.01 in 10.0 mi North 11.5 mph - N/A   Unknown
3:35 AM 69.8 °F 53.6 °F 56% 29.99 in 10.0 mi NNE 6.9 mph - N/A   Unknown
3:55 AM 68.0 °F 53.6 °F 60% 30.00 in 10.0 mi NNE 5.8 mph - N/A   Unknown
4:15 AM 66.2 °F 53.6 °F 64% 30.01 in 10.0 mi Calm Calm - N/A   Unknown
4:35 AM 68.0 °F 53.6 °F 60% 30.02 in 10.0 mi West 4.6 mph - N/A   Unknown
4:55 AM 69.8 °F 51.8 °F 53% 30.04 in 10.0 mi WNW 6.9 mph - N/A   Unknown
5:15 AM 68.0 °F 51.8 °F 56% 30.04 in 10.0 mi NW 5.8 mph - N/A   Unknown
5:35 AM 68.0 °F 51.8 °F 56% 30.04 in 10.0 mi NNW 5.8 mph - N/A   Unknown
5:55 AM 66.2 °F 51.8 °F 60% 30.05 in 10.0 mi WNW 5.8 mph - N/A   Unknown
6:15 AM 68.0 °F 50.0 °F 52% 30.06 in 10.0 mi NW 4.6 mph - N/A   Unknown
6:35 AM 68.0 °F 50.0 °F 52% 30.05 in 10.0 mi NW 4.6 mph - N/A   Unknown
6:55 AM 68.0 °F 51.8 °F 56% 30.05 in 10.0 mi North 3.5 mph - N/A   Unknown
7:15 AM 68.0 °F 51.8 °F 56% 30.05 in 10.0 mi North 3.5 mph - N/A   Unknown
7:35 AM 69.8 °F 51.8 °F 53% 30.06 in 10.0 mi North 5.8 mph - N/A   Unknown
7:55 AM 69.8 °F 51.8 °F 53% 30.05 in 10.0 mi North 5.8 mph - N/A   Unknown
8:15 AM 71.6 °F 51.8 °F 50% 30.05 in 10.0 mi North 6.9 mph - N/A   Unknown
8:35 AM 73.4 °F 51.8 °F 47% 30.05 in 10.0 mi North 6.9 mph - N/A   Unknown
8:55 AM 77.0 °F 48.2 °F 36% 30.06 in 10.0 mi NNE 9.2 mph - N/A   Unknown
9:15 AM 75.2 °F 46.4 °F 36% 30.06 in 10.0 mi NE 12.7 mph - N/A   Unknown
9:35 AM 77.0 °F 48.2 °F 36% 30.06 in 10.0 mi NE 13.8 mph - N/A   Unknown
9:55 AM 77.0 °F 48.2 °F 36% 30.06 in 10.0 mi NNE 11.5 mph - N/A   Unknown
10:15 AM 78.8 °F 46.4 °F 32% 30.06 in 10.0 mi North 11.5 mph 18.4 mph N/A   Unknown
10:35 AM 80.6 °F 46.4 °F 30% 30.06 in 10.0 mi North 11.5 mph 20.7 mph N/A   Unknown
10:55 AM 80.6 °F 46.4 °F 30% 30.06 in 10.0 mi North 10.4 mph - N/A   Unknown
11:15 AM 80.6 °F 46.4 °F 30% 30.06 in 10.0 mi North 12.7 mph 18.4 mph N/A   Unknown
11:35 AM 80.6 °F 44.6 °F 28% 30.06 in 10.0 mi NNE 16.1 mph 21.9 mph N/A   Unknown
11:55 AM 82.4 °F 44.6 °F 26% 30.05 in 10.0 mi NNE 17.3 mph 34.5 mph N/A   Unknown
12:15 PM 82.4 °F 44.6 °F 26% 30.05 in 10.0 mi NNE 12.7 mph 20.7 mph N/A   Unknown
12:35 PM 84.2 °F 44.6 °F 25% 30.05 in 10.0 mi North 16.1 mph 23.0 mph N/A   Unknown
12:55 PM 84.2 °F 44.6 °F 25% 30.04 in 10.0 mi North 16.1 mph 21.9 mph N/A   Unknown
1:15 PM 84.2 °F 44.6 °F 25% 30.03 in 10.0 mi North 15.0 mph - N/A   Unknown
1:35 PM 86.0 °F 42.8 °F 22% 30.03 in 10.0 mi NNE 19.6 mph 24.2 mph N/A   Unknown
1:55 PM 86.0 °F 42.8 °F 22% 30.03 in 10.0 mi North 13.8 mph 20.7 mph N/A   Unknown
2:15 PM 86.0 °F 42.8 °F 22% 30.02 in 10.0 mi NNE 12.7 mph 23.0 mph N/A   Unknown
2:35 PM 87.8 °F 42.8 °F 21% 30.01 in 10.0 mi NNE 15.0 mph 27.6 mph N/A   Unknown
2:55 PM 86.0 °F 41.0 °F 20% 30.01 in 10.0 mi North 16.1 mph 26.5 mph N/A   Unknown
3:15 PM 87.8 °F 42.8 °F 21% 30.01 in 10.0 mi North 17.3 mph 26.5 mph N/A   Unknown
3:35 PM 87.8 °F 41.0 °F 19% 30.00 in 10.0 mi North 19.6 mph 27.6 mph N/A   Unknown
3:55 PM 87.8 °F 42.8 °F 21% 29.99 in 10.0 mi NNW 9.2 mph 26.5 mph N/A   Unknown
4:15 PM 87.8 °F 41.0 °F 19% 29.99 in 10.0 mi NNE 16.1 mph 26.5 mph N/A   Unknown
4:35 PM 87.8 °F 41.0 °F 19% 29.98 in 10.0 mi NNW 16.1 mph 24.2 mph N/A   Unknown
4:55 PM 87.8 °F 41.0 °F 19% 29.98 in 10.0 mi NNE 21.9 mph 25.3 mph N/A   Unknown
5:15 PM 87.8 °F 41.0 °F 19% 29.98 in 10.0 mi North 12.7 mph 27.6 mph N/A   Unknown
5:35 PM 87.8 °F 41.0 °F 19% 29.98 in 10.0 mi North 15.0 mph 27.6 mph N/A   Unknown
5:55 PM 87.8 °F 41.0 °F 19% 29.98 in 10.0 mi NNE 16.1 mph 26.5 mph N/A   Unknown
6:15 PM 87.8 °F 41.0 °F 19% 29.99 in 10.0 mi North 11.5 mph 24.2 mph N/A   Unknown
6:35 PM 86.0 °F 41.0 °F 20% 29.99 in 10.0 mi NE 15.0 mph 19.6 mph N/A   Unknown
6:55 PM 86.0 °F 41.0 °F 20% 29.99 in 10.0 mi NNE 15.0 mph 20.7 mph N/A   Unknown
7:15 PM 82.4 °F 41.0 °F 23% 30.00 in 10.0 mi NE 17.3 mph - N/A   Unknown
7:35 PM 82.4 °F 41.0 °F 23% 30.00 in 10.0 mi NE 18.4 mph 21.9 mph N/A   Unknown
7:55 PM 80.6 °F 41.0 °F 24% 30.00 in 10.0 mi NNE 12.7 mph - N/A   Unknown
8:15 PM 80.6 °F 42.8 °F 26% 30.00 in 10.0 mi NE 12.7 mph - N/A   Unknown
8:35 PM 78.8 °F 42.8 °F 28% 30.00 in 10.0 mi NE 9.2 mph - N/A   Unknown
8:55 PM 77.0 °F 42.8 °F 29% 30.00 in 10.0 mi NE 9.2 mph - N/A   Unknown
9:15 PM 75.2 °F 42.8 °F 31% 30.01 in 10.0 mi NE 10.4 mph - N/A   Unknown
9:35 PM 75.2 °F 42.8 °F 31% 30.02 in 10.0 mi NE 10.4 mph - N/A   Unknown
9:55 PM 73.4 °F 42.8 °F 33% 30.03 in 10.0 mi NE 9.2 mph - N/A   Unknown
10:15 PM 71.6 °F 42.8 °F 35% 30.05 in 10.0 mi NE 9.2 mph - N/A   Unknown
10:35 PM 73.4 °F 42.8 °F 33% 30.06 in 10.0 mi ENE 10.4 mph - N/A   Unknown
10:55 PM 71.6 °F 44.6 °F 38% 30.07 in 10.0 mi ENE 6.9 mph - N/A   Unknown
11:15 PM 69.8 °F 46.4 °F 43% 30.07 in 10.0 mi ENE 5.8 mph - N/A   Unknown
11:35 PM 68.0 °F 46.4 °F 46% 30.08 in 10.0 mi NE 4.6 mph - N/A   Unknown
11:55 PM 68.0 °F 46.4 °F 46% 30.09 in 10.0 mi ENE 5.8 mph - N/A   Unknown